User: anonymous   Login
Location: Kaarina
(60.4167°N, 22.4167°E)
Time: 06:17:32
(UTC+03:00)
Language:

Cosmos 1833 Rocket - Orbit

View from above orbital plane
View from above orbital plane
View from above satellite
View from above satellite

Ground track
Ground track

The orbit data is extracted from the following two-line orbital elements,

1 17590U 87027B   19289.27038952 -.00000147  00000-0 -49326-4 0  9993
2 17590  71.0019 157.7440 0002789  80.9148 279.2291 14.16774741684660
Epoch (UTC): 16 October 2019 06:29:21
Eccentricity: 0.0002789
inclination: 71.0019°
perigee height: 834 km
apogee height: 838 km
right ascension of ascending node: 157.7440°
argument of perigee: 80.9148°
revolutions per day: 14.16774741
mean anomaly at epoch: 279.2291°
orbit number at epoch: 68466

The dashed part of the orbit path shows where the satellite is in the earth's shadow,  

DLR